Skip Page Navigation
NASA JPL Caltech
NASA Logo - Jet Propulsion Laboratory + View the NASA Portal
+ Center for Near-Earth Object Studies
JPL Home Earth Solar System Stars & Galaxies Technology
JPL Solar System Dynamics
BODIES ORBITS EPHEMERIDES TOOLS PHYSICAL DATA DISCOVERY FAQ SITE MAP
JPL Small-Body Database Browser
Search: [ help ]  
3597 Kakkuri (1941 UL)
Classification: Main-belt Asteroid          SPK-ID: 2003597
Ephemeris | Orbit Diagram | Orbital Elements | Mission Design | Physical Parameters | Discovery Circumstances | Close-Approach Data ]

[ hide orbit diagram ]

For accurate long-term ephemerides, please instead use our Horizons system.This orbit viewer was implemented using two-body methods, and hence should not be used for determining accurate long-term trajectories (over several years or decades) or planetary encounter circumstances.


[ revert to old Java-based viewer ]

Orbital Elements at Epoch 2459000.5 (2020-May-31.0) TDB
Reference: JPL 38 (heliocentric ecliptic J2000)
 Element Value Uncertainty (1-sigma)   Units 
e .190553847126156 4.1467e-08  
a 3.160287274331052 1.6897e-08 au
q 2.558082376183437 1.353e-07 au
i 2.517389930941984 3.8078e-06 deg
node 86.15988658184177 0.00011145 deg
peri 301.9430323776073 0.00011192 deg
M 20.34286818146087 9.9704e-06 deg
tp 2458884.542737355947
(2020-Feb-05.04273736)
5.6861e-05 TDB
period 2052.051568121663
5.62
1.6458e-05
4.506e-08
d
yr
n .1754341877136765 1.407e-09 deg/d
Q 3.762492172478667 2.0117e-08 au
  Orbit Determination Parameters
   # obs. used (total)      2253  
   data-arc span      16317 days (44.67 yr)  
   first obs. used      1975-12-04  
   last obs. used      2020-08-06  
   planetary ephem.      DE431  
   SB-pert. ephem.      SB431-N16  
   condition code      0  
   norm. resid. RMS      .46531  
   source      ORB  
   producer      Otto Matic  
   solution date      2020-Aug-24 23:05:27  

Additional Information
 Earth MOID = 1.56413 au 
 Jupiter MOID = 1.68685 au 
 T_jup = 3.175 
[ show covariance matrix ]

Ephemeris | Orbit Diagram | Orbital Elements | Mission Design | Physical Parameters | Discovery Circumstances | Close-Approach Data ]

Physical Parameter Table
Parameter Symbol Value Units Sigma Reference Notes
absolute magnitude H 11.9   n/a MPO502187  
diameter diameter 17.604 km 0.268 urn:nasa:pds:neowise_diameters_albedos::2.0[mainbelt] (http://adsabs.harvard.edu/abs/2011ApJ...741...68M)  
rotation period rot_per 27.0 h n/a LCDB (Rev. 2019-August); Warner et al., 2009 Result based on less than full coverage, so that the period may be wrong by 30 percent or so.
Published Reference List:
[Polishook, D.; Ofek, E.O.; Waszczak, A.; Kulkarni, S.R.; et al. (2012). Mon. Not. Royal Ast. Soc. 421, 2094-2108.]
[Waszczak, A.; Chang, C.-K.; Ofeck, E.O.; Laher, F.; et al. (2015) Astron. J. 150, A75.]
geometric albedo albedo 0.119   0.009 urn:nasa:pds:neowise_diameters_albedos::2.0[mainbelt] (http://adsabs.harvard.edu/abs/2011ApJ...741...68M)  

3597 Kakkuri (1941 UL)          Discovered 1941-Oct-15 by Oterma, L. at Turku
Reference: DISCOVERY.DBLast Updated: 2003-08-29

[ show close-approach data ]
Alternate Designations
 1941 UL = 1975 XW5 = 1980 VH1 
Ephemeris | Orbit Diagram | Orbital Elements | Mission Design | Physical Parameters | Discovery Circumstances | Close-Approach Data ]
ABOUT SSD CREDITS/AWARDS PRIVACY/COPYRIGHT GLOSSARY LINKS
FirstGov 2020-Oct-01 17:00 UT
(server date/time)  
NASA Home Page
Site Manager:   Ryan S. Park
Webmaster  Alan B. Chamberlin